User: anonymous   Login
Location: Bismarck
(46.7731°N, 100.8200°W)
Time: 20:20:27
(UTC-06:00)
Language:

Cosmos 1125 Rocket - Orbit

View from above orbital plane
View from above orbital plane
View from above satellite
View from above satellite

Ground track
Ground track

The orbit data is extracted from the following two-line orbital elements,

1 11511U 79078B   14331.86172350  .00000262  00000-0  98135-4 0  9534
2 11511 074.0374 228.6585 0016259 336.6327 090.2508 14.36509219844746
Epoch (UTC): 27 November 2014 20:40:52
Eccentricity: 0.0016259
inclination: 74.0374°
perigee height: 758 km
apogee height: 781 km
right ascension of ascending node: 228.6585°
argument of perigee: 336.6327°
revolutions per day: 14.36509219
mean anomaly at epoch: 90.2508°
orbit number at epoch: 84474

The dashed part of the orbit path shows where the satellite is in the earth's shadow,  

DLR